Location: *
(49.6619°S, 177.4603°W)
Time: 06:08:06
(UTC+00:00)

Resurs 01 Rocket - Pass Details

Date: 31 January 2023
Orbit: 632 x 643 km, 97.9° (Epoch: 01 April)

Event Time Altitude Azimuth Distance (km) Brightness Sun altitude
Rises 10:41:54 0° 180° (S) 2,975 6.3 -20.6°
Reaches altitude 10° 10:44:48 10° 199° (SSW) 2,057 5.4 -20.7°
Maximum altitude 10:47:37 17° 238° (WSW) 1,649 4.3 -20.9°
Drops below altitude 10° 10:50:24 10° 278° (W) 2,042 4.3 -21.0°
Sets 10:53:17 0° 298° (WNW) 2,942 4.9 -21.2°
